Location: Bosdarros
(43.2167°N, 0.3667°W)
Time: 14:52:36
(UTC+00:00)

USA 229 DEB - Pass Details

Date: 22 April 2021
Orbit: 960 x 1252 km, 63.4° (Epoch: 23 April)

Event Time Altitude Azimuth Distance (km) Brightness Sun altitude
Rises 22:16:12 0° 323° (NW) 3,968 7.9 -29.4°
Reaches altitude 10° 22:18:50 10° 325° (NW) 3,046 7.0 -29.7°
Maximum altitude 22:26:12 80° 53° (NE) 1,221 3.8 -30.3°
Enters shadow 22:27:01 72° 111° (ESE) 1,264 3.8 -30.4°
